{"data":{"norad_id":41173,"intl_designator":"2015-078A","name":"DAMPE","alt_names":[],"object_type":"PAYLOAD","status":"ACTIVE","operator":null,"country":"PRC","launch_date":"2015-12-17","launch_site_code":"JSC","launch_vehicle":null,"mission":null,"orbit_class":"UNKNOWN","rcs_meters":1.582,"size_class":null,"mass_kg":null,"dimensions":null,"purposes":["science"],"wikipedia_slug":null,"has_3d_model":false,"image_url":null,"decayed_at":null,"tle_current":{"epoch":"2026-05-25T03:48:02.846592Z","epoch_age_seconds":64855,"freshness":"FRESH","line1":"1 41173U 15078A   26145.15836628  .00000782  00000+0  28920-4 0  9995","line2":"2 41173  97.4566 150.5141 0012615 150.2405 209.9555 15.30716381581020","mean_motion":15.30716381,"eccentricity":0.0012615,"inclination_deg":97.4566,"raan_deg":150.5141,"arg_perigee_deg":150.2405,"mean_anomaly_deg":209.9555,"bstar":2.892e-5,"rev_number":58102,"period_min":94.073599647458,"perigee_km":465.0301231113,"apogee_km":482.31724146271,"semimajor_km":6851.810682287,"source":"CELESTRAK","updated_at":"2026-05-25T13:38:24.645155Z"}}}